• în România
  • Lista ţărilor
  • Pe 7 zile
  • Temperatura apei
  • Hartă satelitară
  • Meteo pe hartă
  • Widget-uri
  • user-avatar
    Intrare

    Meteo pe oră la Can Tho

    Astăzi, 25 Iunie, Luni

    Timp Temperatura Precipitaţii Vânt Presiune Umiditate
    00:00 +28°C° 0 mm 2 m/s 756 mmHg 88%
    01:00 +28°C° 0 mm 2 m/s 756 mmHg 89%
    02:00 +28°C° 0 mm 2 m/s 756 mmHg 90%
    03:00 +28°C° 0 mm 2 m/s 756 mmHg 91%
    04:00 +28°C° 0 mm 2 m/s 755 mmHg 92%
    05:00 +28°C° 0 mm 2 m/s 755 mmHg 90%
    06:00 +29°C° 0 mm 2 m/s 756 mmHg 87%
    07:00 +30°C° 0 mm 3 m/s 756 mmHg 84%
    08:00 +31°C° 0 mm 3 m/s 756 mmHg 77%
    09:00 +33°C° 0 mm 3 m/s 756 mmHg 70%
    10:00 +35°C° 0 mm 3 m/s 756 mmHg 64%
    11:00 +35°C° 0,2 mm 3 m/s 756 mmHg 61%
    12:00 +36°C° 0,2 mm 4 m/s 755 mmHg 59%
    13:00 +36°C° 0 mm 4 m/s 755 mmHg 59%
    14:00 +35°C° 1,3 mm 4 m/s 755 mmHg 62%
    15:00 +35°C° 1,3 mm 4 m/s 754 mmHg 64%
    16:00 +34°C° 1,3 mm 4 m/s 754 mmHg 67%
    17:00 +33°C° 0,6 mm 3 m/s 754 mmHg 72%
    18:00 +31°C° 0,6 mm 3 m/s 754 mmHg 77%
    19:00 +29°C° 0,6 mm 2 m/s 755 mmHg 83%
    20:00 +29°C° 0 mm 2 m/s 755 mmHg 84%
    21:00 +29°C° 0 mm 2 m/s 756 mmHg 85%
    22:00 +28°C° 0 mm 2 m/s 756 mmHg 87%
    23:00 +28°C° 0 mm 2 m/s 756 mmHg 88%

    Mâine, 26 Iunie, Marţi

    Timp Temperatura Precipitaţii Vânt Presiune Umiditate
    00:00 +28°C° 0 mm 2 m/s 756 mmHg 89%
    01:00 +28°C° 0 mm 2 m/s 756 mmHg 89%
    02:00 +28°C° 0 mm 2 m/s 756 mmHg 90%
    03:00 +28°C° 0 mm 2 m/s 755 mmHg 90%
    04:00 +27°C° 0 mm 2 m/s 755 mmHg 91%
    05:00 +28°C° 0 mm 2 m/s 755 mmHg 89%
    06:00 +28°C° 0 mm 2 m/s 755 mmHg 88%
    07:00 +29°C° 0 mm 2 m/s 756 mmHg 86%
    08:00 +30°C° 0,4 mm 3 m/s 756 mmHg 80%
    09:00 +31°C° 0,4 mm 3 m/s 756 mmHg 74%
    10:00 +33°C° 0,4 mm 4 m/s 757 mmHg 68%
    11:00 +34°C° 0,7 mm 4 m/s 756 mmHg 66%
    12:00 +34°C° 0,7 mm 4 m/s 756 mmHg 64%
    13:00 +35°C° 0,7 mm 4 m/s 756 mmHg 62%
    14:00 +34°C° 1,3 mm 4 m/s 755 mmHg 65%
    15:00 +34°C° 1,3 mm 4 m/s 755 mmHg 67%
    16:00 +33°C° 1,3 mm 4 m/s 755 mmHg 69%
    17:00 +32°C° 0,3 mm 4 m/s 755 mmHg 73%
    18:00 +30°C° 0,3 mm 3 m/s 755 mmHg 78%
    19:00 +29°C° 0,3 mm 2 m/s 756 mmHg 82%
    20:00 +29°C° 0,1 mm 2 m/s 756 mmHg 83%
    21:00 +28°C° 0,1 mm 2 m/s 757 mmHg 84%
    22:00 +28°C° 0,1 mm 2 m/s 757 mmHg 85%
    23:00 +28°C° 0 mm 2 m/s 757 mmHg 86%

    Poimâine, 27 Iunie, Miercuri

    Timp Temperatura Precipitaţii Vânt Presiune Umiditate
    00:00 +28°C° 0 mm 2 m/s 757 mmHg 87%
    01:00 +27°C° 0 mm 2 m/s 757 mmHg 87%
    02:00 +27°C° 1 mm 2 m/s 756 mmHg 88%
    03:00 +27°C° 1 mm 2 m/s 756 mmHg 89%
    04:00 +27°C° 1 mm 2 m/s 756 mmHg 89%
    05:00 +27°C° 0,1 mm 2 m/s 756 mmHg 88%
    06:00 +27°C° 0,1 mm 2 m/s 756 mmHg 87%
    07:00 +28°C° 0,1 mm 2 m/s 757 mmHg 86%
    08:00 +29°C° 0 mm 2 m/s 757 mmHg 79%
    09:00 +30°C° 0 mm 2 m/s 757 mmHg 73%
    10:00 +33°C° 0 mm 3 m/s 757 mmHg 67%
    11:00 +33°C° 0,1 mm 3 m/s 757 mmHg 64%
    12:00 +34°C° 0,1 mm 3 m/s 756 mmHg 62%
    13:00 +34°C° 0,1 mm 3 m/s 756 mmHg 59%
    14:00 +34°C° 0,5 mm 3 m/s 755 mmHg 62%
    15:00 +33°C° 0,5 mm 3 m/s 755 mmHg 65%
    16:00 +33°C° 0,5 mm 3 m/s 755 mmHg 68%
    17:00 +31°C° 0,7 mm 3 m/s 755 mmHg 73%
    18:00 +30°C° 0,7 mm 2 m/s 755 mmHg 77%
    19:00 +29°C° 0,7 mm 2 m/s 756 mmHg 82%
    20:00 +28°C° 0 mm 2 m/s 757 mmHg 83%
    21:00 +28°C° 0 mm 2 m/s 757 mmHg 84%
    22:00 +28°C° 0 mm 2 m/s 758 mmHg 85%
    23:00 +27°C° 0 mm 1 m/s 757 mmHg 86%

    28 Iunie, Joi

    Timp Temperatura Precipitaţii Vânt Presiune Umiditate
    00:00 +27°C° 0 mm 1 m/s 757 mmHg 86%
    01:00 +27°C° 0 mm 1 m/s 757 mmHg 87%
    02:00 +27°C° 0 mm 1 m/s 756 mmHg 87%
    03:00 +27°C° 0 mm 1 m/s 756 mmHg 88%
    04:00 +26°C° 0 mm 1 m/s 756 mmHg 88%
    05:00 +27°C° 0 mm 1 m/s 756 mmHg 87%
    06:00 +27°C° 0 mm 1 m/s 756 mmHg 85%
    07:00 +28°C° 0 mm 1 m/s 757 mmHg 84%
    08:00 +29°C° 0 mm 2 m/s 757 mmHg 77%
    09:00 +31°C° 0 mm 2 m/s 757 mmHg 70%
    10:00 +33°C° 0 mm 3 m/s 757 mmHg 64%
    11:00 +34°C° 0,1 mm 3 m/s 757 mmHg 61%
    12:00 +35°C° 0,1 mm 3 m/s 756 mmHg 58%
    13:00 +35°C° 0,1 mm 3 m/s 756 mmHg 55%
    14:00 +35°C° 1 mm 3 m/s 755 mmHg 60%
    15:00 +34°C° 1 mm 3 m/s 755 mmHg 64%
    16:00 +33°C° 1 mm 3 m/s 754 mmHg 69%
    17:00 +31°C° 0,7 mm 3 m/s 755 mmHg 75%
    18:00 +30°C° 0,7 mm 2 m/s 755 mmHg 80%
    19:00 +28°C° 0,7 mm 2 m/s 756 mmHg 86%
    20:00 +28°C° 0 mm 2 m/s 756 mmHg 87%
    21:00 +28°C° 0 mm 2 m/s 757 mmHg 87%
    22:00 +28°C° 0 mm 2 m/s 757 mmHg 88%
    23:00 +27°C° 0 mm 2 m/s 757 mmHg 89%

    29 Iunie, Vineri

    Timp Temperatura Precipitaţii Vânt Presiune Umiditate
    00:00 +27°C° 0 mm 1 m/s 756 mmHg 89%
    01:00 +27°C° 0 mm 1 m/s 756 mmHg 90%
    02:00 +27°C° 0,1 mm 1 m/s 756 mmHg 90%
    03:00 +27°C° 0,1 mm 1 m/s 755 mmHg 90%
    04:00 +27°C° 0,1 mm 1 m/s 755 mmHg 91%
    05:00 +27°C° 0 mm 1 m/s 756 mmHg 89%
    06:00 +28°C° 0 mm 1 m/s 756 mmHg 87%
    07:00 +28°C° 0 mm 1 m/s 757 mmHg 86%
    08:00 +29°C° 0 mm 2 m/s 757 mmHg 78%
    09:00 +31°C° 0 mm 2 m/s 757 mmHg 71%
    10:00 +34°C° 0 mm 2 m/s 757 mmHg 63%
    11:00 +34°C° 0,1 mm 2 m/s 756 mmHg 60%
    12:00 +35°C° 0,1 mm 2 m/s 756 mmHg 57%
    13:00 +36°C° 0,1 mm 3 m/s 755 mmHg 53%
    14:00 +36°C° 0,2 mm 3 m/s 754 mmHg 55%
    15:00 +35°C° 0,2 mm 3 m/s 754 mmHg 57%
    16:00 +35°C° 0,2 mm 3 m/s 754 mmHg 58%
    17:00 +34°C° 0,2 mm 3 m/s 754 mmHg 65%
    18:00 +31°C° 0,2 mm 3 m/s 755 mmHg 71%
    19:00 +29°C° 0,2 mm 3 m/s 755 mmHg 77%
    20:00 +29°C° 0 mm 2 m/s 756 mmHg 78%
    21:00 +29°C° 0 mm 2 m/s 756 mmHg 80%
    22:00 +28°C° 0 mm 2 m/s 756 mmHg 82%
    23:00 +28°C° 0 mm 2 m/s 756 mmHg 83%

    30 Iunie, Sâmbătă

    Timp Temperatura Precipitaţii Vânt Presiune Umiditate
    00:00 +28°C° 0 mm 2 m/s 756 mmHg 84%
    01:00 +27°C° 0 mm 2 m/s 756 mmHg 85%
    02:00 +27°C° 0 mm 2 m/s 755 mmHg 86%
    03:00 +27°C° 0 mm 2 m/s 755 mmHg 87%
    04:00 +27°C° 0 mm 2 m/s 755 mmHg 88%
    05:00 +27°C° 0 mm 2 m/s 756 mmHg 86%
    06:00 +28°C° 0 mm 2 m/s 756 mmHg 85%
    07:00 +28°C° 0 mm 2 m/s 757 mmHg 83%
    08:00 +30°C° 0 mm 2 m/s 757 mmHg 76%
    09:00 +33°C° 0 mm 3 m/s 757 mmHg 68%
    10:00 +35°C° 0 mm 3 m/s 757 mmHg 61%
    11:00 +35°C° 0,1 mm 4 m/s 756 mmHg 59%
    12:00 +36°C° 0,1 mm 4 m/s 755 mmHg 57%
    13:00 +36°C° 0,1 mm 4 m/s 755 mmHg 54%
    14:00 +36°C° 0,3 mm 4 m/s 754 mmHg 56%
    15:00 +36°C° 0,3 mm 4 m/s 754 mmHg 57%
    16:00 +35°C° 0,3 mm 4 m/s 754 mmHg 59%
    17:00 +34°C° 0,4 mm 4 m/s 754 mmHg 66%
    18:00 +31°C° 0,4 mm 3 m/s 755 mmHg 72%
    19:00 +30°C° 0,4 mm 3 m/s 755 mmHg 79%
    20:00 +29°C° 0 mm 3 m/s 756 mmHg 81%
    21:00 +29°C° 0 mm 3 m/s 756 mmHg 83%
    22:00 +28°C° 0 mm 3 m/s 757 mmHg 85%
    23:00 +28°C° 0 mm 2 m/s 756 mmHg 86%
    Arată mai mult